Weather History for False Pass, AK

Change the Weather History Date:

Wednesday, December 12, 2012

  Actual Average (PACD) Record (PACD)
Temperature  
Mean Temperature 42 °F 32 °F  
Max Temperature 44 °F 36 °F 50 °F (1975)
Min Temperature 39 °F 27 °F 7 °F (1976)
Degree Days  
Heating Degree Days 24 33  
Month to date heating degree days 393  
Since 1 July heating degree days 3419  
Cooling Degree Days 0    
Month to date cooling degree days  
Year to date cooling degree days  
Moisture  
Dew Point 32 °F    
Average Humidity 66    
Maximum Humidity 89    
Minimum Humidity 45    
Precipitation  
Precipitation 0.01 in 0.15 in 0.61 in (1960)
Month to date precipitation 1.93  
Year to date precipitation 39.14  
Snow  
Snow 0.00 in 0.40 in 3.80 in (1999)
Month to date snowfall 4.8  
Since 1 July snowfall 17.4  
Snow Depth -    
Sea Level Pressure  
Sea Level Pressure 29.98 in    
Wind  
Wind Speed 14 mph (South)    
Max Wind Speed 22 mph    
Max Gust Speed 34 mph    
Visibility 10 miles    
Events Rain    
T = Trace of Precipitation, MM = Missing Value Source: NWS Daily Summary

Daily Weather History Graph

Daily Weather History Graph

Search for Another Location

Airport:

Trip Planner

Search our weather history database for the weather conditions in past years. The results will help you decide how hot, cold, wet, or windy it might be!

Date:

Astronomy

Dec. 12, 2012 Rise Set
Actual Time 9:09 AM HAST 4:26 PM HAST
Civil Twilight 8:24 AM HAST 5:11 PM HAST
Nautical Twilight 7:37 AM HAST 5:58 PM HAST
Astronomical Twilight 6:52 AM HAST 6:42 PM HAST
Moon 8:24 AM HAST (12/12) 4:18 PM HAST (12/12)
Length of Visible Light 8h 46m
Length of Day
7h 16m
Waning Crescent, 0% of the Moon is Illuminated
Dec 12
Waning Crescent
Dec 12
New
Dec 19
First Quarter
Dec 28
Full
Jan 4
Last Quarter

Hourly Weather History & Observations

Time (HAST) Temp. Windchill Dew Point Humidity Pressure Visibility Wind Dir Wind Speed Gust Speed Precip Events Conditions
1:01 AM 42.1 °F 36.6 °F 39.0 °F 89% 29.83 in 10.0 mi NNW 9.2 mph - N/A   Clear
2:01 AM 42.1 °F 34.2 °F 37.9 °F 85% 29.86 in 10.0 mi East 16.1 mph - N/A   Clear
4:01 AM 39.9 °F 32.9 °F 36.0 °F 86% 29.88 in 10.0 mi East 11.5 mph - N/A   Partly Cloudy
6:01 AM 42.1 °F 33.1 °F 34.0 °F 73% 29.95 in 8.0 mi WSW 20.7 mph 34.5 mph 0.01 in Rain Light Rain
7:01 AM 44.1 °F 35.9 °F 28.0 °F 53% 29.95 in 10.0 mi WSW 19.6 mph 26.5 mph 0.00 in   Scattered Clouds
8:01 AM 43.0 °F 36.8 °F 28.0 °F 56% 29.98 in 10.0 mi SW 11.5 mph 25.3 mph N/A   Clear
9:01 AM 42.1 °F 32.8 °F 32.0 °F 67% 30.02 in 7.0 mi WSW 21.9 mph 28.8 mph 0.00 in Rain Light Rain
9:11 AM 41.0 °F 33.9 °F 32.0 °F 70% 29.75 in 9.0 mi West 12.7 mph 26.5 mph 0.00 in Rain Light Rain
10:01 AM 43.0 °F 36.8 °F 27.0 °F 53% 30.03 in 10.0 mi SW 11.5 mph 24.2 mph 0.00 in   Clear
11:01 AM 44.1 °F 37.1 °F 24.1 °F 45% 30.05 in 10.0 mi WSW 15.0 mph 26.5 mph N/A   Clear
12:01 PM 44.1 °F 36.5 °F 24.1 °F 45% 30.03 in 10.0 mi West 17.3 mph 25.3 mph N/A   Clear
1:01 PM 43.0 °F - 26.1 °F 51% 30.05 in 10.0 mi Calm Calm - N/A   Clear
2:01 PM 43.0 °F 34.0 °F 30.0 °F 60% 30.05 in 10.0 mi South 21.9 mph 27.6 mph N/A   Clear
3:01 PM 43.0 °F 36.8 °F 28.9 °F 58% 30.05 in 10.0 mi SSE 11.5 mph 23.0 mph N/A   Clear
4:01 PM 42.1 °F 33.3 °F 32.0 °F 67% 30.04 in 10.0 mi SSE 19.6 mph 27.6 mph N/A   Clear
5:01 PM 42.1 °F 34.2 °F 32.0 °F 67% 30.03 in 10.0 mi South 16.1 mph 25.3 mph N/A   Clear
6:01 PM 43.0 °F 35.7 °F 30.9 °F 62% 30.04 in 10.0 mi SSE 15.0 mph 25.3 mph N/A   Partly Cloudy
7:01 PM 43.0 °F 34.2 °F 34.0 °F 71% 30.04 in 10.0 mi SSE 20.7 mph 27.6 mph 0.00 in Rain Light Rain
8:01 PM 43.0 °F 35.4 °F 34.0 °F 71% 30.01 in 10.0 mi SSE 16.1 mph 25.3 mph 0.00 in   Partly Cloudy
9:01 PM 43.0 °F 35.1 °F 35.1 °F 74% 30.01 in 10.0 mi SSE 17.3 mph 28.8 mph 0.00 in Rain Light Rain
10:01 PM 43.0 °F 34.5 °F 34.0 °F 71% 30.00 in 10.0 mi South 19.6 mph 31.1 mph 0.00 in   Partly Cloudy
11:01 PM 43.0 °F 36.4 °F 34.0 °F 71% 30.00 in 10.0 mi SSE 12.7 mph 21.9 mph 0.00 in   Partly Cloudy